This is the latest recevied weather packets stored in our database for station/object KE8CZD. If no packets are shown the sender has not sent any weather packets the latest 10 day(s).
| Time | Temp. | Humidity | Pressure | Rain* | Wind** | Luminosity | Snow |
|---|---|---|---|---|---|---|---|
| 1777569164 | 10.56° C | 42% | 1011 hPa | 0 mm | - | - | - |
| 1777568805 | 10.56° C | 43% | 1011.1 hPa | 0 mm | - | - | - |
| 1777568445 | 10.56° C | 42% | 1011.3 hPa | 0 mm | - | - | - |
| 1777568084 | 11.11° C | 42% | 1011.2 hPa | 0 mm | - | - | - |
| 1777567726 | 10.56° C | 43% | 1011.1 hPa | 0 mm | - | - | - |
| 1777567365 | 10.56° C | 43% | 1011.2 hPa | 0 mm | - | - | - |
| 1777567004 | 10.56° C | 44% | 1011.2 hPa | 0 mm | - | - | - |
| 1777566644 | 10° C | 45% | 1011.3 hPa | 0 mm | - | - | - |
| 1777566284 | 10° C | 49% | 1011.5 hPa | 0 mm | - | - | - |
| 1777565924 | 9.44° C | 49% | 1011.5 hPa | 0 mm | - | - | - |
| 1777565564 | 9.44° C | 49% | 1011.6 hPa | 0 mm | - | - | - |
| 1777565204 | 9.44° C | 49% | 1011.7 hPa | 0 mm | - | - | - |
| 1777564845 | 9.44° C | 49% | 1011.6 hPa | 0 mm | - | - | - |
| 1777564484 | 9.44° C | 50% | 1011.6 hPa | 0 mm | - | - | - |
| 1777564124 | 10° C | 50% | 1011.6 hPa | 0 mm | - | - | - |
| 1777563764 | 9.44° C | 51% | 1011.5 hPa | 0 mm | - | - | - |
| 1777563405 | 9.44° C | 50% | 1011.6 hPa | 0 mm | - | - | - |
| 1777562684 | 9.44° C | 51% | 1011.5 hPa | 0 mm | - | - | - |
| 1777562355 | 9.44° C | 51% | 1011.5 hPa | 0 mm | - | - | - |
| 1777562324 | 9.44° C | 51% | 1011.5 hPa | 0 mm | - | - | - |
| 1777561964 | 10° C | 51% | 1011.5 hPa | 0 mm | - | - | - |
| 1777561604 | 9.44° C | 51% | 1011.5 hPa | 0 mm | - | - | - |
| 1777560895 | 8.33° C | 52% | 1011.4 hPa | 0 mm | - | - | - |
| 1777560524 | 8.33° C | 53% | 1011.4 hPa | 0 mm | - | - | - |
| 1777560164 | 8.89° C | 53% | 1011.5 hPa | 0 mm | - | - | - |
* Rain latest hour (hover to see other rain measurements)
** Current wind speed in m/s (hover to see current wind gust speed)